K3HM Weather Reports


Display with metric or nautical units.
time (UTC)temp
F
wind
direction
speed
MPH
gust
MPH
rain 1hr
in
rain 24hr
in
rain mn
in
humidity
%
barometer
mb
20260505065842 55 355 0.0 1.0 0.00 0.00 0.00 76 1011.0
20260505065339 54 352 0.0 1.0 0.00 0.00 0.00 77 1011.2
20260505064836 53 320 1.0 2.0 0.00 0.00 0.00 78 1010.9
20260505064333 52 298 2.0 2.0 0.00 0.00 0.00 81 1011.0
20260505063832 52 355 0.0 0.0 0.00 0.00 0.00 81 1011.1
20260505063327 51 326 1.0 1.0 0.00 0.00 0.00 83 1011.1
20260505062824 50 7 1.0 1.0 0.00 0.00 0.00 84 1011.1
20260505062321 50 7 0.0 0.0 0.00 0.00 0.00 85 1010.8
20260505061818 50 7 0.0 0.0 0.00 0.00 0.00 84 1011.1
20260505061316 51 7 0.0 0.0 0.00 0.00 0.00 83 1011.0
20260505060813 51 7 0.0 0.0 0.00 0.00 0.00 84 1010.9
20260505060310 51 7 0.0 0.0 0.00 0.00 0.00 84 1011.0
20260505055806 51 7 0.0 0.0 0.00 0.00 0.00 83 1011.0
20260505055303 53 6 0.0 0.0 0.00 0.00 0.00 80 1011.4
20260505054800 53 338 1.0 2.0 0.00 0.00 0.00 79 1011.2
20260505054257 53 352 0.0 0.0 0.00 0.00 0.00 80 1011.3
20260505053755 53 350 0.0 1.0 0.00 0.00 0.00 79 1011.3
20260505053252 53 359 0.0 0.0 0.00 0.00 0.00 80 1011.4
20260505052749 53 346 1.0 1.0 0.00 0.00 0.00 80 1011.3
20260505052246 53 11 0.0 0.0 0.00 0.00 0.00 80 1011.2
20260505051742 53 358 0.0 0.0 0.00 0.00 0.00 80 1011.5
20260505051240 52 355 1.0 1.0 0.00 0.00 0.00 80 1011.5
20260505050738 52 2 0.0 0.0 0.00 0.00 0.00 82 1011.5
20260505050237 53 359 0.0 0.0 0.00 0.00 0.00 81 1011.5
20260505041706 53 359 0.0 0.0 0.00 0.00 0.00 80 1011.2
20260505041203 52 359 1.0 1.0 0.00 0.00 0.00 82 1011.3
20260505040700 52 0 0.0 0.0 0.00 0.00 0.00 82 1011.2
20260505040158 52 357 0.0 0.0 0.00 0.00 0.00 81 1011.3
20260505035654 53 357 0.0 0.0 0.00 0.00 0.00 80 1011.2
20260505035150 52 1 0.0 0.0 0.00 0.00 0.00 81 1011.3
20260505034647 52 1 0.0 0.0 0.00 0.00 0.00 81 1011.3
20260505034144 52 1 0.0 0.0 0.00 0.00 0.00 81 1011.3
20260505033640 52 2 0.0 0.0 0.00 0.00 0.00 81 1011.3
20260505033139 53 2 0.0 1.0 0.00 0.00 0.00 80 1011.5
20260505032637 53 2 1.0 1.0 0.00 0.00 0.00 80 1011.5
20260505032133 53 2 0.0 0.0 0.00 0.00 0.00 79 1011.2
20260505031630 54 2 0.0 0.0 0.00 0.00 0.00 79 1011.4
20260505031126 54 357 0.0 0.0 0.00 0.00 0.00 77 1011.3
20260505030623 55 356 0.0 0.0 0.00 0.00 0.00 76 1011.6
20260505030119 55 357 0.0 0.0 0.00 0.00 0.00 76 1011.6
20260505025615 55 356 1.0 1.0 0.00 0.00 0.00 76 1011.5
20260505025114 56 357 0.0 0.0 0.00 0.00 0.00 75 1011.5
20260505024611 56 340 0.0 1.0 0.00 0.00 0.00 75 1011.5
20260505024108 56 337 1.0 1.0 0.00 0.00 0.00 75 1011.3
20260505023605 55 2 1.0 1.0 0.00 0.00 0.00 76 1011.5
20260505023103 56 3 0.0 0.0 0.00 0.00 0.00 74 1011.6
20260505022600 56 354 1.0 1.0 0.00 0.00 0.00 73 1011.5
20260505022057 57 347 1.0 1.0 0.00 0.00 0.00 73 1011.5
20260505021553 57 354 0.0 0.0 0.00 0.00 0.00 72 1011.6
20260505021050 57 338 1.0 1.0 0.00 0.00 0.00 72 1011.4
20260505020550 58 329 0.0 1.0 0.00 0.00 0.00 71 1011.6
20260505020047 58 309 2.0 2.0 0.00 0.00 0.00 70 1011.5
20260505015544 58 345 1.0 2.0 0.00 0.00 0.00 71 1011.4
20260505015041 58 334 2.0 2.0 0.00 0.00 0.00 70 1011.4
20260505014538 59 282 2.0 2.0 0.00 0.00 0.00 70 1011.4
20260505014035 59 345 0.0 1.0 0.00 0.00 0.00 69 1011.3
20260505013532 59 330 1.0 1.0 0.00 0.00 0.00 69 1011.2
20260505013030 59 342 1.0 1.0 0.00 0.00 0.00 69 1011.1
20260505012527 59 303 1.0 1.0 0.00 0.00 0.00 69 1011.3
20260505012025 59 338 1.0 1.0 0.00 0.00 0.00 69 1011.3
20260505011520 59 345 1.0 1.0 0.00 0.00 0.00 69 1011.3
20260505011017 59 308 0.0 1.0 0.00 0.00 0.00 68 1011.1
20260505010512 60 267 1.0 2.0 0.00 0.00 0.00 67 1011.2
20260505010009 60 307 1.0 2.0 0.00 0.00 0.00 67 1010.9
20260505005506 60 308 1.0 2.0 0.00 0.00 0.00 66 1010.9
20260505005004 60 316 1.0 1.0 0.00 0.00 0.00 66 1010.9
20260505004500 60 281 2.0 2.0 0.00 0.00 0.00 66 1010.9
20260505003957 60 233 3.0 4.0 0.00 0.00 0.00 65 1011.0
20260505003454 61 320 1.0 2.0 0.00 0.00 0.00 65 1011.1
20260505002950 61 246 2.0 2.0 0.00 0.00 0.00 64 1010.8
20260505002446 61 325 2.0 2.0 0.00 0.00 0.00 65 1011.1
20260505001945 61 332 1.0 1.0 0.00 0.00 0.00 65 1011.3
20260505001442 61 253 3.0 4.0 0.00 0.00 0.00 64 1010.9
20260505000939 61 252 1.0 1.0 0.00 0.00 0.00 65 1010.8
20260505000437 61 228 3.0 4.0 0.00 0.00 0.00 63 1010.9
20260504235934 61 302 2.0 3.0 0.00 0.00 0.00 63 1010.9
20260504235431 62 238 4.0 6.0 0.00 0.00 0.00 62 1010.9
20260504234927 62 288 3.0 3.0 0.00 0.00 0.00 62 1010.8
20260504234425 63 192 3.0 4.0 0.00 0.00 0.00 60 1010.8
20260504233921 64 242 3.0 4.0 0.00 0.00 0.00 60 1010.7
20260504233417 64 243 5.0 7.0 0.00 0.00 0.00 59 1010.9
20260504232914 64 272 5.0 6.0 0.00 0.00 0.00 58 1010.9
20260504232411 64 231 3.0 4.0 0.00 0.00 0.00 57 1010.5
20260504231908 64 231 5.0 8.0 0.00 0.00 0.00 58 1010.9
20260504231404 64 241 3.0 4.0 0.00 0.00 0.00 57 1010.8
20260504230901 64 261 4.0 4.0 0.00 0.00 0.00 56 1010.8
20260504230358 64 256 4.0 6.0 0.00 0.00 0.00 57 1010.7
20260504225856 65 212 3.0 4.0 0.00 0.00 0.00 55 1010.8
20260504225352 65 233 6.0 7.0 0.00 0.00 0.00 55 1010.7
20260504224850 65 273 2.0 3.0 0.00 0.00 0.00 55 1010.7
20260504224347 65 229 5.0 7.0 0.00 0.00 0.00 56 1010.5
20260504223844 65 292 4.0 4.0 0.00 0.00 0.00 54 1010.5
20260504223339 65 204 3.0 3.0 0.00 0.00 0.00 54 1010.5
20260504222836 65 243 6.0 7.0 0.00 0.00 0.00 54 1010.5
20260504222333 66 212 4.0 4.0 0.00 0.00 0.00 51 1010.7
20260504221831 67 329 2.0 3.0 0.00 0.00 0.00 50 1010.5
20260504221327 67 226 2.0 2.0 0.00 0.00 0.00 51 1010.5
20260504220825 67 233 5.0 8.0 0.00 0.00 0.00 50 1010.4
20260504220321 67 293 3.0 4.0 0.00 0.00 0.00 51 1010.4
20260504215819 67 208 5.0 6.0 0.00 0.00 0.00 51 1010.5
20260504215315 67 196 4.0 10.0 0.00 0.00 0.00 50 1010.5
20260504214811 66 323 5.0 9.0 0.00 0.00 0.00 50 1010.4
20260504214308 66 250 9.0 11.0 0.00 0.00 0.00 51 1010.5
20260504213805 67 234 6.0 8.0 0.00 0.00 0.00 49 1010.7
20260504213301 68 263 7.0 11.0 0.00 0.00 0.00 47 1010.4
20260504212758 68 268 8.0 10.0 0.00 0.00 0.00 49 1010.3
20260504212254 68 277 5.0 7.0 0.00 0.00 0.00 50 1010.2
20260504211752 68 218 7.0 10.0 0.00 0.00 0.00 52 1010.2
20260504211248 67 297 6.0 8.0 0.00 0.00 0.00 51 1010.2
20260504210746 68 200 10.0 13.0 0.00 0.00 0.00 50 1010.0
20260504210243 68 256 6.0 8.0 0.00 0.00 0.00 50 1010.1
20260504205739 67 252 5.0 6.0 0.00 0.00 0.00 51 1010.1
20260504205237 65 238 7.0 8.0 0.00 0.00 0.00 55 1009.9
20260504204735 66 211 5.0 6.0 0.00 0.00 0.00 54 1010.1
20260504204233 66 247 6.0 8.0 0.00 0.00 0.00 54 1010.1
20260504203732 67 215 9.0 15.0 0.00 0.00 0.00 52 1010.2
20260504203229 67 239 4.0 6.0 0.00 0.00 0.00 52 1010.1
20260504202729 66 225 5.0 6.0 0.00 0.00 0.00 53 1010.3
20260504202227 66 44 5.0 7.0 0.00 0.00 0.00 54 1010.3
20260504201724 66 272 8.0 9.0 0.00 0.00 0.00 54 1010.1
20260504201221 67 211 6.0 9.0 0.00 0.00 0.00 53 1010.3
20260504200718 67 197 11.0 14.0 0.00 0.00 0.00 51 1010.2
20260504200214 67 281 4.0 6.0 0.00 0.00 0.00 53 1010.3
20260504195711 66 286 6.0 8.0 0.00 0.00 0.00 52 1010.7
20260504195207 66 214 6.0 8.0 0.00 0.00 0.00 52 1010.5
20260504194704 66 263 9.0 10.0 0.00 0.00 0.00 54 1010.4
20260504194200 66 212 7.0 8.0 0.00 0.00 0.00 53 1010.7
20260504193656 67 239 8.0 9.0 0.00 0.00 0.00 52 1010.5
20260504193154 66 220 4.0 4.0 0.00 0.00 0.00 52 1010.7
20260504192652 67 232 10.0 16.0 0.00 0.00 0.00 51 1010.9
20260504192150 67 240 10.0 13.0 0.00 0.00 0.00 51 1011.2
20260504191648 67 219 8.0 10.0 0.00 0.00 0.00 52 1011.1
20260504191144 65 229 3.0 3.0 0.00 0.00 0.00 52 1011.0
20260504190640 65 234 9.0 15.0 0.00 0.00 0.00 52 1010.9
20260504190137 68 218 10.0 11.0 0.00 0.00 0.00 51 1010.9
20260504185633 67 206 8.0 11.0 0.00 0.00 0.00 51 1011.0
20260504185130 68 232 7.0 9.0 0.00 0.00 0.00 48 1011.1
20260504184626 67 228 6.0 8.0 0.00 0.00 0.00 49 1011.6
20260504184121 66 272 7.0 10.0 0.00 0.00 0.00 52 1011.5
20260504183619 65 225 13.0 15.0 0.00 0.00 0.00 50 1011.5
20260504183116 65 242 4.0 6.0 0.00 0.00 0.00 52 1011.4
20260504182614 67 229 7.0 10.0 0.00 0.00 0.00 50 1011.5
20260504182111 66 227 14.0 16.0 0.00 0.00 0.00 49 1011.6
20260504181608 66 220 9.0 13.0 0.00 0.00 0.00 49 1011.5
20260504181106 66 332 7.0 10.0 0.00 0.00 0.00 47 1011.6
20260504180605 66 225 9.0 9.0 0.00 0.00 0.00 49 1011.6
20260504180103 65 214 7.0 9.0 0.00 0.00 0.00 52 1011.5
20260504175600 67 225 11.0 16.0 0.00 0.00 0.00 50 1011.5
20260504175057 65 220 13.0 15.0 0.00 0.00 0.00 49 1011.4
20260504174555 65 266 10.0 14.0 0.00 0.00 0.00 49 1012.0
20260504174051 65 236 12.0 18.0 0.00 0.00 0.00 48 1011.9
20260504173548 65 232 8.0 13.0 0.00 0.00 0.00 52 1011.9
20260504173046 65 216 7.0 8.0 0.00 0.00 0.00 50 1011.8
20260504172541 65 268 10.0 13.0 0.00 0.00 0.00 49 1012.0
20260504172038 64 239 8.0 10.0 0.00 0.00 0.00 49 1012.0
20260504171535 66 228 13.0 16.0 0.00 0.00 0.00 49 1012.2
20260504171032 64 239 7.0 8.0 0.00 0.00 0.00 49 1012.0
20260504170528 64 15 4.0 6.0 0.00 0.00 0.00 48 1012.3
20260504150912 60 209 8.0 13.0 0.00 0.00 0.00 53 1013.2
20260504150409 59 191 6.0 8.0 0.00 0.00 0.00 53 1013.2
20260504140835 57 238 10.0 15.0 0.00 0.00 0.00 55 1013.4
20260504140331 56 202 2.0 3.0 0.00 0.00 0.00 59 1013.7
20260504130800 53 246 3.0 4.0 0.00 0.00 0.00 63 1013.5
20260504130256 52 282 5.0 7.0 0.00 0.00 0.00 63 1013.5
20260504120220 46 230 3.0 4.0 0.00 0.00 0.00 72 1014.1
20260504110647 38 21 0.0 0.0 0.00 0.00 0.00 87 1013.4
20260504110143 38 21 0.0 0.0 0.00 0.00 0.00 87 1013.9
20260504100603 36 18 0.0 0.0 0.00 0.00 0.00 84 1013.8
20260504081957 36 33 0.0 0.0 0.00 0.00 0.00 91 1014.6
20260504081454 36 33 0.0 0.0 0.00 0.00 0.00 90 1014.6
20260504080949 36 33 0.0 0.0 0.00 0.00 0.00 91 1014.5
20260504080446 36 36 0.0 0.0 0.00 0.00 0.00 91 1014.4